Home   Weather   Sandefjord   Past weeks

Flag for Norway Past Weather in Sandefjord, Norway — Yesterday and Last 2 Weeks

Now
50 °F

Sunny.


Feels Like: 47 °F
Forecast: 38 / 44 °F
Wind: 8 mph from Southwest

Location: Torp

Current Time: Feb 19, 2017 at 3:27:06 pm

Latest Report: Feb 19, 2017 at 2:50 pm


Visibility: 10 mi

Pressure: 29.59 "Hg

Humidity: 58%

Dew Point: 36 °F

Location of SandefjordLocation

Past Weather in Sandefjord — Graph

°F

Sandefjord Temperature Yesterday

Maximum temperature yesterday: 37 °F (at 6:50 pm)
Minimum temperature yesterday: 19 °F (at 5:50 am)
Average temperature yesterday: 28 °F

High & Low Weather Summary for the Past Weeks

 TemperatureHumidityPressure
High48 °F (Feb 19, 1:20 pm)100% (Feb 4, 2:20 pm)30.83 "Hg (Feb 4, 2:20 pm)
Low16 °F (Feb 13, 7:20 am)56% (Feb 13, 1:50 pm)29.59 "Hg (Feb 19, 1:20 pm)
Average27 °F93%30.41 "Hg
* Reported Feb 4 2:20 pm — Feb 19 2:20 pm, Sandefjord, Weather by CustomWeather, © 2017

Note: Actual official high and low records may vary slightly from our data, if they occured in-between our weather recording intervals... More about our weather records

Advertising

Sandefjord Weather History for the Previous 24 Hours

Scroll right to see more
 ConditionsComfort  
Time TempWeatherWind HumidityBarometerVisibility
2:20 pm
Sun, Feb 19
48 °FPassing clouds.9 mph62%29.59 "HgN/A
1:50 pm48 °FSunny.10 mph62%29.59 "Hg10 mi
1:20 pm48 °FSunny.10 mph62%29.59 "Hg10 mi
12:50 pm46 °FSunny.12 mph71%29.62 "Hg10 mi
12:20 pm46 °FPassing clouds.10 mph71%29.62 "HgN/A
11:50 am45 °FSunny.9 mph76%29.62 "Hg10 mi
11:20 am45 °FSunny.8 mph76%29.62 "Hg10 mi
10:50 am43 °FSunny.7 mph81%29.62 "Hg10 mi
10:20 am43 °FSunny.9 mph81%29.62 "Hg10 mi
9:50 am41 °FSunny.10 mph93%29.62 "Hg10 mi
9:20 am39 °FSunny.8 mph100%29.62 "Hg10 mi
8:50 am39 °FSunny.9 mph100%29.62 "Hg10 mi
8:20 am39 °FPassing clouds.8 mph100%29.62 "HgN/A
7:50 am39 °FSunny.9 mph100%29.62 "Hg10 mi
7:20 am39 °FClear.10 mph100%29.62 "Hg10 mi
6:50 am37 °FClear.8 mph100%29.62 "Hg10 mi
6:20 am39 °FClear.6 mph100%29.62 "Hg10 mi
5:50 am39 °FClear.8 mph100%29.62 "Hg10 mi
5:20 am39 °FOvercast.12 mph100%29.62 "HgN/A
4:50 am37 °FPassing clouds.12 mph100%29.62 "HgN/A
4:20 am37 °FPassing clouds.7 mph100%29.62 "HgN/A
3:50 am37 °FOvercast.6 mph100%29.65 "HgN/A
2:50 am37 °FPassing clouds.12 mph100%29.65 "HgN/A
2:20 am37 °FPassing clouds.10 mph100%29.65 "HgN/A
1:50 am37 °FPassing clouds.8 mph100%29.65 "HgN/A
1:20 am36 °FOvercast.12 mph100%29.68 "HgN/A
12:50 am36 °FPassing clouds.12 mph100%29.68 "HgN/A
12:20 am37 °FMostly cloudy.7 mph100%29.68 "HgN/A
11:50 pm
Sat, Feb 18
37 °FLow clouds.14 mph100%29.68 "Hg5 mi
11:20 pm37 °FMostly cloudy.15 mph100%29.68 "Hg4 mi
10:50 pm36 °FFog.15 mph100%29.68 "Hg2 mi
10:20 pm37 °FFog.17 mph100%29.71 "Hg1 mi
9:50 pm37 °FFog.17 mph100%29.71 "Hg1 mi
9:20 pm37 °FFog.17 mph100%29.71 "Hg2 mi
8:50 pm37 °FLow clouds.16 mph100%29.74 "Hg4 mi
8:20 pm37 °FPassing clouds.17 mph100%29.74 "Hg5 mi
7:50 pm37 °FPassing clouds.16 mph100%29.77 "HgN/A
7:20 pm37 °FPartly cloudy.16 mph100%29.80 "HgN/A
6:50 pm37 °FPartly cloudy.16 mph100%29.80 "HgN/A
6:20 pm36 °FPassing clouds.17 mph100%29.83 "HgN/A
5:50 pm36 °FPassing clouds.13 mph100%29.83 "HgN/A
5:20 pm34 °FPassing clouds.9 mph100%29.86 "HgN/A
4:50 pm32 °FPartly sunny.6 mph100%29.86 "HgN/A
4:20 pm32 °FPartly sunny.3 mph100%29.89 "HgN/A
3:50 pm32 °FScattered clouds.3 mph100%29.89 "HgN/A
3:20 pm30 °FSleet. Fog.5 mph100%29.89 "Hg6 mi
Weather by CustomWeather, © 2017

See weather overviewHow to use our weather pages